星链-5917 (STARLINK-5917 )

导读

STARLINK-5917是美国SpaceX公司星链(Starlink)卫星互联网项目中的一颗卫星,于2023年3月17日发射升空。作为星链星座的一员,它运行在近地轨道,属于第二代星链卫星组网批次,配备氪离子推进系统与相控阵通信天线,可提供低延迟高速宽带互联网服务,助力实现全球覆盖,尤其为偏远地区提供网络接入,是SpaceX大规模低轨卫星互联网部署的重要组成部分。

基本信息
目录编号:
55942
目录名称:
STARLINK-5917
国际标识:
2023-037AE
轨道中心:
EARTH
卫星名称:
星链-5917
卫星全名:
星链-5917 (STARLINK-5917 )
卫星状态:
在轨 (已飞行1268 天)
发射日期:
2023-03-17 UTC
国别 :
美国 (US)
星等 :
--
轨道信息
数据来源 国际轨道数据
星历时间: 2026-09-04T14:28:18+0800
19小时前
查看轨道信息
半长轴: 6950.213km
偏心率: 0.0003455
轨道倾角: 70.000°
近地点辐角 267.433°
升交点赤经 194.034°
平近点角 92.644°
近地点: 569.674km
远地点: 574.478km
周期: 96.107分钟
每日圈数: 14.983238
详细信息
固有亮度:
5
最大亮度:
2.5
卫星平台:
Starlink v1.5
覆盖范围:
全球
运营商:
太空探索技术公司
运营商所在国:
美国
制造商(研发单位):
太空探索技术公司
制造商所在国:
美国
使用方式:
暂无
卫星简介
星链(Starlink)计划是由太空探索技术公司(SpaceX)提出的一个巨型低轨卫星互联网星座项目,计划在2019年至2024年间在太空搭建由约1.2万颗卫星组成的“星链”网络,其中1584颗将部署在地球上空550千米处的近地轨道,并从2020年开始工作。该卫星仍在工作。
2D轨道图
3D轨道图
轨道高度分析图
轨道倾角分析图
轨道综合分析图
查看轨道综合分析图
交会数据列表
事件ID 空间交会对象 最接近时刻(TCA) 交会距离 交会风险概率(CRP) 交会风险指数(CRI) 操作
CDM_260905-074005-215305-594222
OBJECT A (52153)
2026-09-05T
07:40:41+0000
1.951 km
极远距离
2.547208E-6 低风险 0.43
CDM_260907-173504-005705-594221
VELOX 1 (40057)
2026-09-07T
17:35:42+0000
2.886 km
极远距离
7.530842E-7 极低风险 0.33